ECMWFNIL_700_spd_057.txt.gz
Wind_Speed
18 18 19 19 17 18 18 17 18 20 21 23 25 26 26 26 25 25 24 23 21 20 21 22 23 24 23 22 22 23 23 23 22 22 21 20 20 19 18 16 15 16
20 19 20 19 18 20 20 18 19 18 18 22 27 28 28 29 28 27 26 24 21 19 21 22 23 23 22 22 22 22 23 23 22 22 20 19 19 19 18 17 16 17
19 19 19 19 20 21 21 20 18 16 16 21 26 27 28 29 29 27 27 24 21 20 21 21 22 22 21 22 22 22 22 21 21 20 19 19 18 18 18 18 18 18
16 18 18 19 22 23 22 20 18 16 17 20 25 27 28 28 27 25 24 23 21 21 21 21 21 21 21 21 22 22 21 21 20 19 19 18 17 18 18 19 19 19
12 16 18 21 24 25 23 20 18 18 20 21 25 27 27 28 28 25 23 21 20 21 21 21 22 22 21 21 21 21 21 20 19 19 19 18 18 18 19 19 19 19
11 15 18 21 23 24 23 20 18 19 22 23 25 26 26 28 29 26 23 21 20 21 20 21 22 22 21 21 20 20 20 19 19 19 20 19 19 19 19 20 20 20
13 16 17 18 20 22 23 21 19 20 21 23 25 25 25 27 27 25 22 20 19 19 19 20 20 21 20 19 19 19 19 19 19 20 20 20 19 20 20 20 20 20
18 19 19 18 18 19 21 21 20 20 21 23 24 26 27 26 26 25 22 19 19 18 19 19 19 19 19 19 19 19 20 20 20 20 20 20 20 20 20 20 20 20
20 21 21 21 19 18 20 20 20 20 21 22 24 27 28 27 26 26 22 19 19 19 19 19 19 20 20 20 20 20 21 21 21 21 20 20 20 20 20 20 19 19
18 19 21 23 22 20 20 19 19 20 21 23 24 26 29 28 28 28 24 20 19 20 21 21 20 21 21 21 21 21 22 22 22 21 21 21 20 20 20 19 19 19
17 19 22 24 24 23 21 20 20 20 20 23 25 26 30 32 31 30 27 23 20 20 22 22 21 21 21 20 20 20 21 22 21 21 21 21 20 20 20 19 18 18
20 20 22 23 23 23 21 20 21 21 21 24 25 27 30 32 32 32 30 26 22 22 23 23 22 22 21 20 20 20 20 19 20 20 20 21 21 21 20 19 18 18
21 19 19 19 20 21 20 20 21 20 21 24 26 27 27 27 30 32 30 26 23 23 23 23 23 22 20 20 20 19 19 18 18 18 19 20 20 20 19 19 18 19
22 20 20 20 20 20 20 20 21 21 22 25 27 27 25 27 30 31 28 24 23 23 23 23 23 21 20 20 19 19 18 18 18 18 18 18 18 18 18 19 19 19
25 22 23 24 23 21 19 20 22 23 25 27 28 27 26 29 31 30 28 25 23 24 25 25 23 21 19 18 18 17 17 17 17 17 18 18 18 18 19 19 19 19
28 26 26 26 25 23 22 22 23 26 27 28 29 28 26 28 30 31 29 26 24 24 26 25 23 20 19 18 17 17 17 17 17 17 18 19 18 18 19 19 20 20
30 31 30 30 30 28 26 26 27 28 29 29 31 31 28 28 30 30 28 27 26 25 26 25 22 21 20 19 18 18 18 18 18 18 18 18 18 18 19 20 21 21
29 32 34 34 35 33 31 31 31 31 31 30 32 33 31 30 31 29 28 28 27 26 26 25 23 22 21 20 19 19 18 19 19 19 19 19 18 19 19 21 21 21
24 29 34 36 36 35 35 33 31 31 31 30 33 34 33 33 32 31 30 29 26 26 27 26 24 22 21 20 20 19 18 18 18 18 18 18 18 19 19 21 21 22
21 24 30 36 36 36 37 34 31 32 32 32 34 36 34 33 33 33 31 28 27 28 28 27 25 24 22 21 19 18 18 18 17 16 17 17 17 18 19 21 22 22
20 21 24 31 35 37 37 34 32 34 34 33 34 35 34 34 34 34 32 29 28 30 30 28 26 25 23 22 21 20 20 19 16 15 15 16 16 17 19 21 22 23
19 20 21 26 32 35 35 32 32 36 36 35 35 36 36 36 37 36 32 30 31 31 31 29 28 27 26 24 23 23 22 19 17 16 16 16 16 16 17 19 21 23
19 17 19 22 28 33 33 33 35 38 38 36 37 37 36 36 38 37 33 31 31 31 31 30 30 29 28 27 26 25 23 21 19 19 18 18 17 16 16 18 19 21
20 17 16 18 24 31 33 34 37 39 38 37 37 37 36 36 37 38 36 33 31 31 32 31 31 30 30 29 28 26 24 23 22 22 21 20 19 19 18 18 19 21
20 19 20 18 18 26 30 33 37 38 39 40 39 37 38 39 39 40 40 37 33 33 33 32 32 32 32 32 31 29 27 26 26 25 25 23 23 22 22 22 22 22
17 17 19 19 16 22 28 32 37 40 40 41 41 40 39 40 40 41 42 40 37 35 35 34 34 33 33 32 31 30 29 28 29 29 28 27 27 27 26 25 25 24

ECMWFNIL_700_spd_060.txt.gz
Wind_Speed
27 26 26 26 24 24 23 21 21 20 19 21 22 23 24 23 22 23 24 25 26 27 26 25 24 24 24 23 21 20 21 20 19 20 19 18 18 19 20 21 20 18
24 24 25 24 24 25 24 23 23 21 18 20 21 22 23 22 24 24 23 25 27 26 24 23 23 24 23 21 19 19 19 19 19 20 19 19 20 20 22 23 20 18
27 27 27 26 27 27 25 24 23 20 18 19 19 19 20 22 24 24 26 27 26 24 23 22 22 22 21 20 20 20 20 19 19 20 20 20 20 21 22 22 20 18
26 26 26 27 29 27 25 24 21 19 18 18 17 17 18 20 24 26 28 28 25 23 23 22 21 21 20 20 21 21 22 21 20 21 21 21 21 20 21 21 21 20
19 21 23 26 29 26 25 22 17 17 18 17 16 17 16 18 23 25 27 26 24 23 23 22 21 21 20 21 22 22 22 22 21 21 21 21 20 20 20 21 21 21
15 16 17 22 25 24 21 18 14 14 16 15 15 16 15 16 21 24 25 25 25 24 22 21 21 21 21 21 22 23 23 22 22 21 21 21 20 20 20 20 21 21
15 13 14 18 21 19 17 17 16 15 15 14 14 15 15 16 19 22 24 26 26 25 23 22 21 20 21 22 22 23 23 23 23 22 21 21 21 21 20 21 20 21
15 15 15 19 21 19 18 20 20 18 16 13 13 15 16 17 19 21 24 26 26 25 24 23 21 21 22 22 23 23 22 22 22 22 21 21 22 21 21 21 21 21
15 15 15 18 23 24 23 23 22 20 17 14 13 16 18 19 21 22 24 25 25 24 24 23 22 22 22 23 23 22 22 22 22 22 21 21 22 22 21 21 21 21
17 17 18 19 22 26 26 23 22 21 19 17 16 18 19 21 23 23 24 25 24 24 25 24 23 22 22 22 23 22 21 21 22 22 21 21 21 21 21 21 20 20
20 20 21 20 21 23 25 23 22 22 21 19 19 19 19 21 23 24 24 25 24 24 24 24 23 22 22 23 22 22 21 21 21 22 21 21 21 21 21 21 20 19
22 21 22 22 21 21 22 22 22 23 22 20 18 18 20 21 23 25 26 27 26 26 26 25 23 23 23 23 22 22 22 22 22 21 21 21 21 21 21 20 20 20
23 23 22 22 21 20 20 21 21 20 21 20 18 19 21 22 22 25 28 29 27 26 26 26 25 23 23 23 23 23 22 22 21 20 20 21 21 22 21 20 20 21
23 23 23 22 21 20 20 21 20 17 16 18 18 19 21 23 22 24 28 30 29 28 27 26 26 24 23 22 22 22 21 20 19 19 19 21 21 22 21 20 20 21
22 23 23 23 23 22 21 22 22 19 16 17 19 19 20 22 23 24 27 30 32 31 30 29 27 25 23 22 21 20 19 19 19 19 19 20 20 20 20 20 20 20
21 22 23 25 26 25 24 24 24 23 20 19 20 20 20 23 25 25 26 31 33 32 31 29 26 24 23 22 21 20 19 19 19 19 19 19 19 20 20 20 20 20
21 21 23 24 26 27 28 27 26 26 23 21 21 21 20 23 26 25 25 29 32 32 30 27 24 23 23 22 21 21 19 19 19 19 19 19 19 19 19 20 20 20
22 22 23 24 25 26 28 29 29 28 26 23 22 22 21 23 25 25 24 26 30 31 30 28 25 24 24 23 22 21 20 20 20 20 19 19 19 19 19 19 19 19
22 23 24 25 25 25 26 28 30 31 30 28 25 24 23 24 26 26 25 26 30 31 30 28 26 25 25 25 24 22 21 21 20 19 19 19 18 18 18 18 18 19
20 21 23 25 26 26 24 24 28 32 32 31 29 27 26 27 28 28 26 27 31 32 31 28 26 26 27 27 25 23 22 21 20 19 19 18 18 18 18 18 19 19
19 18 18 21 24 25 23 23 24 29 32 31 29 28 28 29 30 29 27 28 31 32 31 29 27 28 29 28 26 24 23 21 20 19 19 18 18 18 18 19 19 20
19 17 15 16 18 20 21 21 22 25 30 31 29 27 28 30 31 31 30 31 32 31 31 31 29 29 30 29 27 26 23 22 20 18 18 18 18 18 18 18 19 20
20 19 16 14 14 16 17 19 20 22 27 31 30 28 28 30 31 32 32 33 34 33 32 32 31 31 31 30 28 27 24 22 20 19 18 19 18 18 17 17 17 18
22 21 19 16 16 17 17 16 17 19 22 26 29 29 30 31 31 32 34 35 36 35 35 34 33 33 33 31 30 29 26 23 22 20 20 20 20 19 18 17 17 17
24 24 22 20 20 20 20 17 13 17 18 22 28 31 32 33 33 33 34 37 38 38 37 36 35 35 34 33 32 30 28 26 25 24 23 23 22 21 20 19 18 18
25 26 25 23 23 23 22 20 13 14 18 20 28 34 34 34 34 34 35 37 39 39 38 37 37 36 35 34 33 32 31 29 27 27 26 25 24 23 22 21 21 21

ECMWFNIL_700_spd_063.txt.gz
Wind_Speed
29 29 30 31 32 32 32 31 30 28 27 26 26 25 21 18 19 21 21 22 25 26 27 28 30 32 30 29 27 26 25 25 26 26 26 26 24 23 23 22 23 23
26 26 27 29 30 31 31 30 29 30 29 28 27 25 21 17 17 19 20 21 23 25 25 25 26 31 32 29 26 26 25 25 25 26 26 26 24 24 24 23 23 23
23 23 25 26 28 30 31 31 31 30 30 30 29 25 20 18 17 17 19 20 22 21 22 23 24 28 31 28 26 26 25 25 26 27 27 26 25 24 24 23 23 23
22 22 22 23 25 27 28 30 30 30 32 31 28 24 21 18 16 16 18 20 20 20 22 25 26 27 29 28 27 26 25 25 28 30 28 26 26 25 24 24 24 24
22 21 21 22 25 26 25 25 27 29 29 26 24 23 21 19 15 16 19 20 21 22 25 27 28 28 29 28 27 26 25 25 28 29 28 26 26 25 25 25 25 26
21 20 19 20 23 25 23 19 20 22 21 20 19 19 20 20 17 16 18 19 20 22 24 27 28 28 28 26 25 24 25 27 28 28 27 26 27 27 26 25 25 24
20 21 20 18 18 21 19 14 12 13 14 15 16 16 19 20 18 18 17 17 18 20 23 26 26 26 25 25 24 24 25 27 28 28 26 26 27 27 26 25 23 22
19 20 20 18 16 16 16 13 13 14 15 16 16 18 19 18 17 18 17 17 20 21 23 24 24 24 25 25 24 25 25 26 26 27 26 25 24 24 24 23 22 21
20 20 19 18 17 15 14 14 17 20 22 22 21 21 22 20 18 18 18 19 21 23 23 24 25 24 25 25 23 24 25 25 25 26 25 24 23 23 23 23 22 21
20 20 20 19 18 17 15 14 17 20 23 25 23 21 22 21 20 20 19 20 22 24 24 25 26 27 27 25 23 23 24 24 25 25 24 23 23 23 23 22 22 22
19 20 21 20 19 19 18 17 16 18 21 23 23 21 21 22 23 22 21 21 24 25 25 25 26 27 29 27 23 22 23 24 25 25 24 24 24 23 23 23 23 23
18 19 21 21 21 20 20 19 18 18 19 21 22 22 22 23 24 22 20 21 23 25 25 25 25 27 29 28 25 23 22 22 23 23 23 23 23 23 23 23 23 23
19 19 20 22 22 22 21 21 20 19 19 19 20 21 21 21 21 21 21 21 23 25 26 25 26 27 28 27 25 24 22 21 22 23 21 22 23 24 24 24 24 23
21 21 21 22 23 22 22 22 23 21 20 20 19 19 18 17 18 20 21 22 23 25 24 23 25 28 28 25 22 22 21 21 23 23 21 21 23 24 24 24 24 23
24 24 23 24 24 23 22 22 24 24 23 21 20 19 18 17 17 18 21 22 23 24 24 25 26 28 29 26 22 20 21 22 23 23 22 22 23 24 24 24 23 23
26 27 26 26 26 26 24 22 22 25 26 25 23 20 19 19 18 18 20 22 22 22 25 27 28 28 29 27 24 21 21 22 23 23 22 23 24 24 24 24 23 22
27 28 29 28 27 27 26 24 22 23 25 27 27 24 21 21 19 17 18 22 22 21 24 29 30 29 29 29 26 23 22 22 23 23 23 23 23 24 24 24 23 22
26 28 29 28 28 27 26 25 24 23 22 24 27 27 25 23 21 17 17 21 23 21 23 28 31 30 31 31 28 24 23 23 24 24 23 23 22 22 23 23 23 23
24 25 26 26 26 26 26 25 25 24 22 21 23 26 27 25 23 20 17 19 23 22 22 26 31 33 33 32 30 27 24 24 25 25 24 23 22 22 22 22 22 21
22 22 21 23 24 24 25 25 25 23 21 20 21 24 27 26 24 23 20 19 21 23 23 25 30 34 32 30 30 29 26 25 26 25 24 24 23 23 22 22 22 21
21 20 18 18 20 22 23 24 24 21 19 19 20 22 26 25 24 24 24 23 23 25 25 25 29 32 31 30 31 29 28 28 27 25 24 24 23 22 21 21 21 21
20 19 18 16 16 18 20 22 22 20 16 16 19 21 24 26 27 26 26 26 27 27 27 27 29 31 33 32 31 30 29 29 27 25 25 24 23 22 21 20 21 21
18 18 18 16 14 16 18 20 20 20 15 13 17 21 22 25 27 28 27 27 28 30 30 29 30 33 34 33 32 32 30 28 26 26 26 25 24 23 21 21 21 21
20 19 19 18 16 15 17 18 19 19 17 12 13 18 20 23 25 27 28 29 30 32 32 32 32 34 35 34 34 33 30 28 27 27 27 26 25 24 23 22 22 22
22 21 20 19 18 16 16 17 18 18 18 14 12 16 20 23 26 28 29 30 31 33 34 33 33 35 36 36 36 35 31 29 30 30 29 27 26 25 24 23 23 23
24 23 22 21 20 18 17 17 18 18 18 16 11 15 21 25 26 28 31 31 31 32 35 35 35 36 37 37 37 37 34 31 32 32 30 28 27 26 25 24 24 24

ECMWFNIL_700_spd_069.txt.gz
Wind_Speed
21 22 22 22 22 22 22 22 21 20 20 20 22 23 26 28 30 33 35 34 32 30 30 29 26 24 24 25 26 28 28 29 29 29 31 34 33 33 34 35 35 34
18 18 18 19 19 19 20 20 20 20 20 21 22 25 27 28 29 29 31 33 32 30 30 29 26 24 24 24 26 29 29 29 29 30 31 33 33 34 35 37 37 34
16 15 16 16 17 17 18 19 20 20 21 23 24 26 27 27 28 28 27 30 30 28 27 27 26 25 23 23 26 29 29 29 29 30 32 32 33 35 35 37 39 36
15 15 15 16 16 16 16 17 18 20 22 24 25 26 26 25 26 25 24 26 27 25 24 24 24 23 22 23 25 28 29 29 29 30 32 33 34 35 35 38 40 37
14 15 15 16 16 17 17 17 18 19 22 23 24 25 26 25 23 23 22 22 24 24 21 22 24 24 23 24 25 27 29 30 30 31 33 33 35 36 36 38 40 37
13 13 13 13 14 15 16 17 18 19 21 22 24 25 25 25 23 21 20 20 22 23 21 22 25 25 24 24 25 27 29 30 30 30 33 33 34 37 37 38 40 40
12 11 11 11 11 12 13 15 16 17 19 21 22 24 25 25 24 22 20 20 22 23 23 23 24 24 24 24 25 27 28 29 30 29 30 32 33 36 37 38 41 41
11 11 11 11 11 12 13 14 15 17 18 20 21 23 25 26 25 24 23 22 23 24 25 26 25 24 25 25 25 25 25 27 28 27 29 31 32 35 36 37 40 39
13 13 13 13 14 14 15 16 16 18 19 20 21 22 24 26 26 25 25 24 24 23 24 27 27 26 26 26 26 25 24 24 25 27 30 30 31 33 32 33 36 36
15 16 16 17 17 17 18 18 19 20 20 21 22 22 23 24 25 26 26 26 25 23 23 25 27 28 28 28 28 27 24 22 23 28 31 31 32 33 32 32 33 34
19 19 20 20 20 20 20 20 21 22 22 23 24 24 23 23 24 25 26 27 27 26 25 24 26 29 30 29 28 27 25 22 22 26 30 32 34 36 35 33 34 34
20 21 22 22 22 22 22 22 22 23 24 24 24 24 24 23 23 24 25 27 28 29 28 26 26 28 29 29 28 25 24 23 23 24 27 29 33 36 36 34 34 34
21 21 22 22 23 23 23 22 22 23 24 25 25 25 24 24 24 24 25 27 28 30 29 27 26 26 26 28 28 24 23 24 25 25 25 27 31 34 36 36 35 33
22 21 21 21 22 22 22 22 22 22 24 25 26 26 25 24 25 24 25 26 28 29 28 28 27 25 25 27 28 26 25 25 26 26 25 26 30 33 35 35 35 35
22 22 22 21 21 21 21 21 22 23 24 26 27 27 26 25 25 25 25 26 27 28 28 28 27 25 24 25 26 28 27 25 26 27 25 25 30 33 34 34 35 36
21 22 22 21 21 21 21 22 22 24 26 27 28 28 26 26 25 25 26 26 27 28 28 27 26 26 26 25 24 26 27 26 27 28 26 26 29 32 33 33 34 34
20 21 21 22 22 22 22 23 24 26 27 28 28 28 27 27 26 26 26 27 28 28 28 28 28 28 27 26 24 25 27 29 29 28 28 28 30 31 32 31 32 32
20 20 21 22 23 23 24 25 26 27 28 28 28 29 28 28 27 27 26 26 28 29 29 29 29 29 28 26 25 25 26 28 30 28 27 29 30 30 30 29 30 30
20 20 20 21 22 23 24 26 27 28 29 29 29 29 29 29 28 27 27 27 28 30 31 31 31 31 30 26 24 24 24 26 28 28 27 28 29 28 28 28 29 31
20 20 20 21 21 22 23 25 26 27 28 29 29 29 29 29 29 28 27 28 28 29 31 33 33 33 32 28 24 23 23 24 26 27 27 28 29 27 26 26 28 30
19 19 19 20 20 21 21 22 24 25 26 28 29 29 29 29 28 27 27 27 29 29 30 32 33 34 34 32 28 25 24 24 26 28 29 29 28 27 26 26 26 28
18 18 17 17 18 18 19 20 21 22 23 24 26 27 28 28 27 26 26 26 28 29 30 31 32 34 35 34 33 29 26 25 26 28 30 30 29 29 28 27 26 28
16 16 16 16 16 16 17 18 18 20 21 21 23 24 25 26 26 25 25 25 25 27 30 31 32 33 33 34 34 31 29 28 28 28 29 30 30 30 29 28 28 29
16 16 16 16 16 16 16 17 17 18 19 19 20 21 22 23 23 23 23 23 23 24 27 30 33 32 31 31 32 31 31 31 30 28 28 30 32 32 31 30 29 28
17 17 17 17 17 17 17 17 17 17 18 18 19 20 20 20 21 21 21 21 22 23 23 26 31 34 32 30 30 31 32 32 31 29 29 30 32 33 32 31 30 28
18 18 19 19 19 19 18 18 18 18 19 19 19 19 20 20 20 20 20 21 20 21 22 23 25 30 32 32 30 30 31 32 31 32 32 32 32 34 33 31 31 30

ECMWFNIL_700_spd_072.txt.gz
Wind_Speed
22 21 19 18 16 15 15 16 17 17 18 19 21 22 22 22 23 25 27 28 28 29 29 28 27 28 26 26 29 28 25 26 25 24 26 26 25 26 27 27 30 34
18 17 15 14 14 14 14 15 16 17 18 19 21 22 23 23 24 25 27 27 27 28 30 29 26 25 25 25 27 26 25 26 26 26 26 24 24 27 28 27 29 33
16 15 15 14 14 14 14 14 15 16 18 19 21 22 23 24 25 25 27 28 27 27 29 29 26 25 25 24 25 26 25 25 26 27 26 24 24 25 26 27 30 33
17 16 16 15 14 14 14 14 15 16 17 19 20 21 23 24 25 25 27 28 28 28 28 28 27 25 25 24 25 25 24 24 25 27 26 24 24 24 25 27 31 33
16 16 15 14 14 14 14 14 15 15 16 17 19 20 21 22 23 24 26 28 29 29 29 28 27 27 25 24 24 24 23 22 24 26 26 25 24 24 25 27 30 32
14 14 13 13 13 13 13 14 14 15 16 17 19 20 21 22 23 24 25 26 28 29 30 29 28 28 27 26 24 23 22 20 20 23 25 24 25 26 27 29 29 30
13 13 13 13 13 13 14 14 15 16 17 19 20 22 23 24 25 26 26 26 27 28 30 31 31 31 31 30 28 25 24 21 19 21 23 22 24 27 27 28 29 31
14 14 14 15 15 15 16 17 18 19 20 21 23 24 25 26 27 28 28 27 28 28 29 31 32 33 33 33 31 29 28 25 20 22 23 22 23 25 26 27 28 30
15 15 16 16 17 18 18 19 20 21 22 23 25 25 26 27 28 29 29 29 29 29 30 30 31 32 32 32 31 31 32 29 24 24 25 24 23 24 25 25 26 28
17 17 17 17 18 19 19 20 21 23 24 24 25 26 27 28 28 29 29 29 29 29 30 31 30 30 30 30 30 30 32 31 28 26 26 24 24 23 23 24 27 28
18 18 18 18 19 20 20 21 22 23 24 24 25 26 27 28 28 29 29 29 28 28 29 31 30 29 29 29 29 28 31 32 30 28 27 25 24 22 21 24 28 29
19 19 19 20 20 21 21 22 22 23 23 24 24 25 26 28 29 29 30 29 28 28 29 30 31 29 28 29 28 26 29 31 29 28 28 26 24 22 21 22 26 28
20 20 21 21 21 22 22 22 22 22 23 23 24 25 26 28 29 30 30 29 28 28 28 30 31 31 29 29 28 25 25 27 27 26 27 27 26 24 21 21 24 27
21 21 21 21 21 21 21 21 21 22 22 23 23 24 26 28 29 30 30 29 28 28 28 29 30 31 30 29 28 25 24 25 26 26 26 28 28 26 24 22 22 26
21 21 20 21 21 21 21 21 21 22 22 23 24 25 26 28 30 31 31 30 28 28 28 28 29 30 31 30 29 26 25 26 26 26 26 27 28 27 26 24 23 25
21 21 21 21 22 22 22 23 23 23 24 24 25 26 28 29 31 32 32 31 30 29 29 28 28 29 30 30 30 28 27 26 26 27 26 27 28 28 26 26 25 26
21 21 21 22 23 23 23 24 24 25 25 26 27 28 30 31 32 33 33 32 31 30 29 28 28 29 30 30 30 30 29 28 27 27 26 25 27 27 27 28 29 27
21 21 21 22 23 23 24 24 25 25 26 27 29 30 31 32 33 34 34 33 33 31 30 29 28 28 30 30 30 30 30 30 29 28 27 25 25 27 27 28 29 28
20 21 21 22 22 23 24 24 25 25 26 27 28 30 31 32 33 34 34 34 33 31 30 29 28 28 29 31 31 30 30 30 30 28 28 26 25 25 25 25 26 26
18 20 20 21 22 22 23 23 23 24 25 26 27 28 29 30 31 32 32 33 33 32 30 29 29 28 29 29 30 30 29 30 29 28 28 28 26 24 23 24 24 24
17 18 19 20 20 21 21 21 22 22 23 24 25 25 26 27 28 29 29 30 30 31 30 29 28 29 29 29 29 28 29 30 29 29 29 29 27 25 24 24 24 24
17 18 19 19 19 19 20 20 20 21 21 22 22 23 24 24 25 26 26 27 27 27 27 27 27 28 28 28 29 28 27 29 29 29 30 30 29 27 25 25 25 25
18 19 20 20 20 20 20 20 20 20 21 21 21 22 22 23 23 24 24 25 24 24 24 24 25 26 27 27 28 28 27 28 29 29 30 30 30 28 27 26 26 26
19 20 20 21 21 21 21 22 21 21 21 22 22 22 23 23 24 24 24 24 24 23 23 22 22 23 25 26 27 27 27 27 28 30 30 31 31 29 27 27 27 27
19 19 21 21 22 22 22 23 23 23 23 23 23 23 24 24 24 25 25 25 25 25 23 22 21 21 22 24 25 26 26 25 25 28 29 30 30 30 29 28 28 28
18 18 20 20 20 21 21 22 24 24 24 24 24 24 25 24 24 25 25 25 26 26 26 24 22 20 20 21 22 24 25 25 24 24 26 27 27 28 29 29 28 28

ECMWFNIL_700_spd_075.txt.gz
Wind_Speed
17 16 16 15 13 12 12 12 13 14 14 15 15 15 15 16 17 18 17 16 16 18 20 22 23 22 23 23 24 25 26 26 27 28 28 27 27 29 30 30 28 28
17 16 15 14 13 13 13 14 14 14 15 16 16 16 15 16 17 17 18 17 17 18 20 22 22 23 23 23 24 24 25 25 25 26 27 27 28 29 30 30 29 29
17 16 15 15 15 15 14 14 14 15 15 16 16 16 16 16 17 17 18 18 19 20 22 22 22 23 25 25 25 25 25 25 25 25 27 28 30 30 30 32 30 29
17 16 16 16 15 15 15 15 15 15 16 16 17 17 16 17 18 19 19 20 21 22 23 24 24 24 25 26 26 26 26 25 25 26 27 27 29 30 31 32 30 29
16 16 16 16 15 15 15 15 16 16 17 17 17 18 19 19 20 21 21 21 21 22 24 25 25 25 26 27 27 28 28 27 26 26 26 26 26 27 29 31 30 29
15 16 15 15 15 16 16 16 17 17 18 19 19 20 21 22 23 23 23 23 22 22 24 25 26 26 26 27 27 28 28 29 27 26 25 26 24 24 26 28 30 30
16 16 15 16 16 17 17 18 18 19 19 20 21 22 23 23 24 24 24 24 23 23 24 26 27 27 27 28 28 28 28 28 28 26 25 25 22 22 24 28 30 29
16 17 16 17 18 18 19 19 19 20 21 22 22 23 24 24 24 25 25 24 24 25 26 27 27 28 28 29 29 28 27 27 26 26 25 23 21 21 22 26 28 28
17 18 18 18 18 19 19 19 20 21 21 22 23 23 24 24 25 25 25 25 25 26 27 27 28 28 28 29 29 27 27 26 25 24 24 23 22 21 22 24 25 26
18 19 19 20 20 20 20 21 21 22 23 24 24 25 25 25 25 25 26 26 26 27 27 27 27 28 28 28 28 27 26 27 25 24 24 23 21 21 22 24 24 24
19 20 21 22 22 23 23 23 24 25 25 26 26 27 26 26 26 26 26 26 27 28 28 28 28 28 28 28 27 27 26 27 26 24 24 24 23 21 22 23 24 23
21 21 22 23 24 24 25 25 26 26 26 26 27 27 27 27 27 26 27 27 28 28 28 29 29 29 29 28 27 27 26 26 26 24 24 25 24 23 22 23 23 23
23 23 24 24 24 24 25 25 25 25 25 26 26 26 27 27 27 27 28 28 29 29 30 30 30 30 30 29 28 27 26 26 25 25 25 26 26 24 23 23 23 24
24 24 24 24 24 24 24 25 25 25 25 26 26 27 28 28 28 28 29 29 30 31 32 32 31 31 30 30 29 27 26 26 25 24 25 26 26 26 25 24 23 23
24 24 24 24 24 24 25 25 25 26 26 27 28 28 29 29 30 30 30 31 32 33 33 33 32 32 32 31 30 28 26 25 25 24 25 27 27 26 25 25 24 24
24 23 23 23 24 24 24 25 25 26 27 28 28 29 30 30 31 32 33 33 33 34 34 33 32 32 31 31 31 29 27 25 25 24 25 27 27 26 25 25 25 24
22 21 21 22 22 22 23 24 25 26 27 28 29 29 30 30 31 32 33 34 34 34 34 33 32 31 30 30 30 29 28 26 25 25 24 26 27 26 25 25 25 24
19 19 19 20 21 21 22 23 24 25 26 27 28 29 29 30 31 31 31 32 33 33 33 33 32 31 30 29 29 28 28 27 27 26 25 24 25 25 25 25 25 25
18 18 18 19 20 21 22 23 24 25 25 26 27 28 29 29 30 30 30 30 30 31 31 32 32 31 29 29 28 28 27 26 27 26 25 24 23 23 23 24 25 25
18 18 18 19 20 21 22 23 24 25 25 26 26 27 28 28 29 30 30 30 29 28 28 29 29 30 29 28 28 28 26 26 26 26 25 24 23 22 22 22 24 25
18 19 19 20 21 22 23 23 24 24 25 26 26 26 27 28 28 29 30 30 29 28 27 26 27 28 28 28 28 28 27 25 26 26 25 23 23 24 24 25 25 26
17 18 19 19 20 21 22 23 24 24 25 26 26 26 27 27 28 29 29 30 29 29 28 27 26 26 26 27 27 27 27 25 25 26 25 23 22 23 25 27 27 27
16 17 19 20 21 22 22 23 24 24 25 26 26 27 27 27 28 28 29 30 30 29 29 28 28 26 26 26 26 26 26 25 24 24 24 23 22 22 24 26 26 26
17 17 18 19 21 22 23 23 24 25 26 26 27 28 28 28 28 28 28 29 29 29 29 29 29 28 27 26 25 25 26 25 24 23 24 23 21 21 23 25 27 27
17 17 18 19 21 22 23 24 24 25 26 27 28 28 29 29 29 29 29 29 29 29 29 28 28 28 28 27 26 25 25 25 24 23 23 23 21 20 20 23 26 26
16 17 18 20 21 22 23 24 24 24 25 26 27 28 29 29 29 29 29 29 29 29 28 28 28 27 28 27 26 25 24 23 24 23 22 22 22 20 19 20 23 24

ECMWFNIL_700_spd_078.txt.gz
Wind_Speed
16 16 16 16 16 15 15 15 15 16 17 18 18 18 18 18 18 19 19 18 17 17 17 17 17 18 19 20 21 22 22 23 24 25 25 24 23 23 23 22 24 26
16 16 16 15 15 16 16 16 17 17 18 18 18 18 18 18 18 18 18 17 17 18 18 18 18 19 21 22 22 23 23 23 24 25 26 25 24 24 24 23 24 26
16 15 15 15 15 16 17 17 17 18 18 18 18 18 17 17 17 18 19 19 20 21 21 21 21 21 22 23 24 24 24 24 24 25 26 25 25 24 24 24 26 26
16 16 15 15 15 16 17 17 17 18 18 18 18 18 18 18 18 19 21 23 24 24 24 24 24 23 23 24 25 25 24 24 24 25 26 25 24 24 24 24 26 26
17 16 16 16 16 17 17 18 18 19 19 20 20 20 20 21 22 22 24 25 26 26 26 26 26 25 25 25 25 26 25 25 24 25 26 25 24 23 23 24 25 25
17 17 17 17 17 18 18 19 20 20 20 21 21 22 23 23 24 25 25 26 27 27 27 27 27 26 26 26 27 27 27 26 26 26 26 25 24 23 23 23 23 24
16 17 17 18 18 19 20 21 21 22 22 23 23 23 24 24 25 26 26 27 27 28 28 28 28 27 27 28 28 28 28 28 27 28 28 27 25 23 23 23 23 23
16 17 18 19 19 20 21 21 22 23 24 24 24 24 24 25 26 26 27 28 28 28 29 29 28 28 28 29 30 29 29 29 29 29 29 28 27 25 24 24 24 24
17 17 18 19 20 21 22 23 24 24 25 26 26 27 27 27 28 28 29 29 29 30 30 29 29 29 29 30 31 31 31 30 30 30 30 29 28 26 25 25 25 25
17 18 19 20 21 22 23 24 25 26 27 28 29 29 29 29 30 30 30 30 30 30 30 30 30 30 30 31 31 32 32 32 32 31 31 30 29 27 26 27 26 26
19 20 21 22 22 23 23 24 26 26 27 28 29 29 29 29 29 29 29 29 29 30 30 31 31 31 31 31 32 32 33 33 33 33 31 31 31 29 28 28 28 28
20 22 23 24 24 24 25 25 26 26 27 27 27 28 28 29 29 29 29 29 29 30 31 31 32 33 33 33 33 34 34 33 33 33 33 32 32 31 30 30 30 30
21 22 24 25 26 26 26 27 27 27 27 27 27 27 27 28 29 29 29 30 30 31 31 32 33 33 34 34 34 35 35 34 33 33 33 33 32 32 31 31 31 32
22 23 24 25 26 26 27 27 27 27 27 27 27 27 27 27 28 29 30 30 31 31 32 33 33 33 34 34 33 33 33 33 32 32 32 32 32 33 33 32 32 33
22 23 23 24 24 24 25 25 25 26 26 26 27 27 27 27 27 28 29 30 31 31 32 33 33 33 33 33 33 32 32 31 31 31 30 30 31 32 33 33 33 33
20 20 20 21 21 22 23 23 24 24 25 26 27 28 28 28 28 29 29 30 30 31 32 33 33 33 33 33 33 32 31 30 30 29 29 29 29 30 31 32 33 34
17 17 18 19 20 21 22 23 24 25 25 27 28 29 29 29 29 30 30 30 31 31 31 32 33 34 34 33 33 32 31 30 29 29 29 28 28 29 30 30 31 33
15 16 17 18 19 20 22 23 23 24 25 26 27 28 29 29 30 30 31 31 31 31 31 31 31 32 33 33 33 33 33 31 30 29 29 28 28 28 29 29 29 30
16 16 17 17 18 19 20 21 22 23 24 25 26 27 28 28 29 30 30 31 31 31 31 31 30 31 31 32 33 33 33 33 31 31 30 29 29 28 28 29 29 29
14 15 15 16 17 18 19 20 22 23 24 25 26 27 28 28 29 30 30 31 31 32 32 31 30 30 30 30 31 32 32 33 32 31 31 31 30 30 29 28 28 28
13 13 14 16 17 18 20 21 22 23 24 25 27 28 29 30 30 31 31 31 32 33 33 32 32 31 30 29 29 29 30 31 32 31 31 31 31 30 30 30 29 28
12 13 15 16 17 19 20 21 22 24 25 26 28 29 30 31 31 32 33 33 34 34 34 33 33 32 31 30 29 28 28 28 30 30 30 30 30 30 30 30 30 29
12 13 14 16 17 18 20 21 22 24 25 27 28 29 30 31 32 33 34 35 35 35 35 34 34 33 33 32 30 29 28 27 27 28 29 29 29 30 30 30 30 30
12 13 14 15 17 18 19 21 22 23 25 26 28 29 30 32 33 34 35 35 35 36 36 35 35 34 33 33 31 30 29 27 26 26 26 27 27 28 28 29 29 30
12 13 14 15 16 17 19 20 22 23 25 26 27 29 30 31 33 33 34 35 35 35 35 35 35 35 34 33 32 31 30 28 27 25 25 25 26 25 26 27 28 29
12 13 14 15 16 18 19 20 22 23 24 25 27 28 29 30 31 32 33 34 34 35 35 35 35 35 34 33 32 31 30 29 28 27 25 24 24 24 24 25 26 27

ECMWFNIL_700_spd_084.txt.gz
Wind_Speed
13 13 13 13 13 13 14 13 13 13 13 14 15 16 16 18 19 20 21 22 22 23 24 24 24 24 24 24 26 27 27 28 29 29 29 29 29 29 29 29 29 30
13 13 13 14 14 14 14 14 13 13 13 14 15 16 17 18 19 20 22 23 23 24 25 25 26 26 26 27 28 28 29 30 30 30 31 31 31 31 31 31 30 31
14 14 14 14 14 15 15 14 14 14 14 15 15 16 17 18 19 21 22 23 24 25 26 27 27 28 28 28 29 29 30 31 31 32 32 33 33 33 32 32 32 32
14 14 14 15 15 16 16 15 15 14 15 15 16 17 18 19 20 21 22 23 24 26 27 28 29 29 30 30 30 31 32 33 33 34 34 34 34 34 34 34 33 33
15 15 15 16 16 16 16 16 15 15 16 16 17 18 19 20 21 22 23 24 25 27 28 29 30 31 32 32 32 33 33 34 34 35 35 35 35 35 34 34 34 34
15 15 16 17 17 17 17 16 16 16 17 18 19 20 21 22 24 25 26 27 28 29 29 30 31 32 32 33 33 34 34 34 34 34 35 35 35 36 36 36 36 36
16 16 17 17 17 17 17 17 17 18 19 20 21 22 23 24 26 27 29 29 30 31 31 32 32 32 32 32 33 33 33 33 34 34 35 35 36 36 37 38 38 38
16 17 17 17 17 17 18 18 19 20 21 22 23 24 25 27 28 29 30 31 31 31 31 32 32 31 31 31 31 32 33 33 34 34 35 36 37 38 38 39 40 40
16 17 17 17 17 18 19 19 20 21 22 23 24 26 27 28 29 29 29 30 30 30 30 30 31 31 31 31 31 31 32 33 34 34 35 36 37 38 39 40 40 41
16 16 17 17 18 19 19 20 21 22 23 24 25 26 26 27 27 27 27 28 28 29 29 29 30 30 30 31 31 31 31 32 33 33 34 35 36 37 38 39 40 40
16 16 17 18 19 19 20 21 22 22 23 23 24 24 24 24 25 25 26 26 27 27 27 28 28 29 29 30 30 30 30 31 31 32 33 34 34 35 36 37 38 39
16 17 17 18 19 19 20 20 20 20 21 21 21 22 22 23 23 23 24 24 25 25 26 27 28 28 29 30 30 31 31 32 32 32 33 33 34 34 35 36 36 37
16 17 17 17 18 18 18 18 18 19 19 20 20 20 20 21 21 22 22 23 24 25 25 26 27 28 28 29 30 30 31 31 32 32 33 33 34 35 35 36 36 37
15 16 15 15 16 16 16 17 17 17 18 18 18 18 19 20 20 21 22 22 23 23 24 25 25 25 26 26 27 28 29 30 31 32 32 33 33 34 35 36 36 37
14 13 13 14 14 15 15 15 15 15 15 16 16 17 18 19 19 19 20 20 21 22 22 23 24 26 27 27 28 29 30 31 32 33 33 34 34 35 35 36 36 37
11 12 12 12 13 13 13 13 13 13 14 15 15 16 16 16 16 17 18 19 20 22 23 25 26 28 29 30 31 32 32 33 34 34 35 35 36 36 36 36 37 37
10 11 11 11 11 10 10 11 11 12 13 13 13 13 13 14 16 17 18 20 21 23 24 26 28 29 30 32 33 34 35 35 36 36 36 37 38 38 38 38 38 38
9 9 9 9 8 8 9 9 10 10 10 10 11 12 14 15 17 18 19 21 22 24 26 27 29 30 32 33 34 35 36 37 37 38 38 38 39 39 40 40 39 39
8 7 7 6 7 7 7 7 8 8 9 10 12 13 15 16 18 19 20 22 23 25 27 29 30 32 33 34 35 36 37 38 38 39 39 40 40 41 41 41 41 41
6 5 5 5 5 5 5 6 8 9 10 12 13 15 16 17 19 20 22 23 25 27 28 30 31 33 34 36 37 37 38 38 39 39 40 40 41 42 42 43 43 43
3 3 3 4 4 5 6 7 9 10 11 12 14 15 17 18 20 22 23 25 26 28 29 31 32 34 36 37 38 38 38 38 39 39 39 40 40 41 41 42 43 43
2 2 2 3 5 6 7 8 9 11 12 14 15 17 18 20 21 23 24 26 27 28 30 31 33 35 36 37 38 39 39 39 39 39 39 38 39 39 39 40 41 42
1 2 3 4 6 7 8 9 10 12 13 15 16 18 19 20 22 23 25 26 27 29 31 32 34 35 36 37 39 39 39 39 39 38 38 37 37 37 38 38 39 41
1 3 4 5 6 7 8 10 11 13 14 15 17 18 20 21 23 24 25 26 28 29 31 33 34 35 36 37 38 39 39 39 38 37 37 36 36 36 37 37 38 38
3 3 4 5 6 8 9 11 12 14 15 17 18 19 20 22 23 25 26 27 28 30 31 32 34 35 36 37 38 39 39 39 38 37 36 37 36 36 36 36 36 37
3 4 4 6 7 8 10 12 13 15 16 17 19 20 21 22 23 25 26 27 28 30 31 32 33 35 36 37 38 39 39 39 38 38 37 37 38 38 37 37 37 37

ECMWFNIL_700_spd_087.txt.gz
Wind_Speed
18 17 17 16 15 15 15 15 15 15 15 15 15 15 15 15 16 16 17 18 19 20 21 22 23 24 25 26 27 28 29 29 30 31 32 32 32 33 32 32 32 32
19 17 17 16 15 15 15 15 15 16 16 16 16 16 16 17 17 18 18 19 19 20 21 22 24 25 26 27 28 29 30 31 32 32 33 34 34 35 35 35 34 34
18 17 16 16 15 16 16 16 16 16 16 16 17 17 18 18 18 18 19 19 20 21 23 24 26 27 29 30 31 31 32 33 33 34 34 35 35 35 36 36 35 35
17 17 16 16 16 16 17 17 17 17 17 17 17 18 18 19 19 20 21 22 23 24 26 27 29 30 32 32 33 34 34 35 35 35 36 36 36 35 35 35 35 35
17 16 16 16 16 17 17 18 18 18 18 18 18 19 19 20 21 22 23 24 26 27 28 30 31 32 33 33 33 33 33 34 34 34 35 35 36 36 36 36 36 37
16 16 16 17 17 18 18 18 19 18 18 18 19 20 21 22 22 24 25 26 28 29 29 30 30 30 30 30 31 31 31 32 32 33 33 34 35 36 36 37 38 38
15 15 16 17 17 18 18 19 19 18 19 19 20 22 22 23 24 25 26 27 28 28 28 28 28 28 28 28 29 29 29 30 30 31 32 33 34 34 36 37 38 39
15 15 15 16 17 18 18 18 18 19 20 21 22 23 24 24 25 25 26 26 26 26 26 26 26 26 27 27 27 28 28 29 29 30 30 31 32 33 33 35 36 37
13 14 15 15 16 17 17 18 19 20 21 22 22 23 23 24 24 24 24 24 24 24 24 25 25 26 26 26 26 27 27 27 28 28 29 29 30 31 31 32 34 35
12 13 14 15 15 16 17 18 19 20 20 21 21 21 22 22 22 22 22 22 23 23 24 24 25 24 24 24 24 24 24 24 25 25 26 27 28 28 29 30 31 32
12 13 13 14 15 16 17 18 18 18 19 19 19 20 20 20 20 20 21 21 22 22 22 21 21 21 21 21 22 23 23 24 24 25 26 27 27 28 29 29 30 31
12 13 13 14 15 16 16 16 16 17 17 17 17 17 17 18 19 19 20 20 19 18 18 18 19 20 21 22 23 24 24 25 26 27 27 28 29 29 30 31 31 32
12 12 13 13 14 14 14 14 14 15 15 15 15 16 16 17 17 17 17 16 16 17 18 19 20 21 23 24 24 25 26 27 27 28 28 29 30 30 31 32 32 33
11 12 12 12 12 12 12 13 12 12 13 13 14 15 15 15 14 14 15 15 17 18 19 21 22 23 23 24 26 27 27 28 28 29 29 30 31 31 32 32 33 34
10 10 10 10 10 10 10 10 10 11 11 12 12 12 12 12 12 13 15 16 18 19 21 22 23 24 25 26 27 28 29 30 30 31 31 32 32 33 33 34 34 35
8 8 8 8 8 8 8 8 9 10 10 10 9 9 9 10 12 14 16 17 19 20 21 22 23 25 26 27 28 29 30 31 32 33 34 34 35 35 35 36 36 37
6 6 6 6 6 6 6 7 8 7 7 7 7 8 9 11 13 14 16 17 19 20 22 23 24 25 26 28 29 31 32 33 34 34 35 36 37 37 37 38 38 38
5 5 4 4 4 5 6 6 5 4 5 6 7 9 10 11 13 15 16 18 19 21 22 23 25 26 27 29 30 31 33 34 35 36 37 37 38 39 40 40 40 40
3 3 2 3 3 4 4 2 2 4 5 6 8 9 11 12 14 15 17 18 20 21 23 24 25 27 28 29 31 32 33 34 36 37 39 40 40 41 41 42 42 42
2 1 1 2 2 2 1 2 3 4 6 7 9 10 11 13 15 16 18 19 21 22 23 25 26 27 28 30 31 32 34 35 37 38 39 40 41 42 42 42 42 43
0 0 1 1 1 1 1 2 4 5 6 8 9 11 12 14 16 17 19 20 21 23 24 25 26 27 28 29 31 32 34 36 37 38 39 40 41 41 42 42 42 42
2 2 2 2 2 2 2 3 5 6 7 8 10 12 13 15 16 18 19 21 22 23 24 25 26 27 28 29 31 32 34 36 37 38 38 39 39 39 39 40 40 40
3 3 3 3 2 1 3 4 5 7 8 9 11 13 14 15 17 18 20 21 22 23 24 25 26 28 29 30 31 33 34 36 37 38 38 38 38 37 37 37 37 38
4 4 4 2 1 2 3 5 6 7 9 10 12 14 15 16 17 19 20 21 22 23 25 26 27 28 29 31 32 34 35 36 37 38 38 37 37 36 36 35 35 36
5 5 3 1 1 3 4 5 6 8 10 12 13 14 16 17 18 20 21 21 22 24 25 26 27 28 30 31 33 35 36 37 38 38 38 38 38 36 35 34 34 35
6 4 2 0 2 3 4 6 8 10 11 12 14 15 16 18 19 20 21 22 23 24 25 26 27 29 30 32 34 35 37 38 38 39 39 39 39 37 36 35 34 35

ECMWFNIL_700_spd_093.txt.gz
Wind_Speed
25 26 26 26 26 26 26 26 25 24 23 22 23 22 22 21 20 21 21 22 22 22 23 23 24 24 25 26 28 29 30 31 31 32 32 32 31 31 31 30 30 30
28 28 27 27 27 27 27 27 26 25 23 23 23 22 21 20 20 20 21 22 22 23 23 24 25 26 27 28 30 30 30 30 30 30 30 30 29 29 29 28 28 28
29 29 28 28 27 26 26 25 25 24 23 22 21 20 19 19 20 20 21 22 22 23 23 24 26 27 28 29 29 29 29 28 28 27 27 26 26 26 26 26 26 26
25 26 27 26 25 24 23 23 23 22 21 20 19 18 18 18 19 20 21 21 22 23 24 25 26 27 27 27 27 27 26 25 24 24 23 23 23 24 25 25 26 27
22 22 22 22 22 22 21 21 21 20 19 18 17 17 17 18 19 19 20 21 22 23 24 24 25 25 25 25 24 23 22 21 21 22 22 23 24 25 26 27 27 28
19 19 18 18 18 19 19 18 18 17 16 16 16 16 17 17 18 19 20 21 22 22 22 23 22 22 21 20 20 19 20 20 21 22 23 24 25 25 26 27 27 28
16 16 16 16 16 16 16 15 15 15 15 15 15 16 16 17 18 19 19 20 20 20 20 20 19 18 17 17 17 18 19 20 21 22 24 24 25 26 26 27 27 28
13 14 14 14 14 14 13 13 13 13 14 14 14 15 16 17 17 18 18 18 18 17 17 16 15 15 16 16 18 19 20 21 22 23 24 24 25 26 26 27 28 28
12 12 12 12 12 12 12 12 12 12 13 13 14 15 15 16 16 16 16 16 15 14 13 13 13 14 16 17 18 19 21 22 22 23 24 24 25 26 27 28 29 29
11 11 11 11 11 11 11 11 12 12 12 13 14 14 14 14 14 14 14 13 12 11 11 12 13 15 16 18 19 20 21 22 22 23 24 24 25 26 27 28 29 30
10 10 10 10 11 11 11 11 11 12 12 13 13 13 13 12 12 12 11 10 9 10 11 12 14 15 17 18 19 20 21 21 22 23 23 24 25 26 27 28 29 30
10 10 10 10 10 10 11 11 11 11 12 12 12 11 11 10 9 8 8 8 9 10 12 13 14 16 17 18 19 20 20 21 21 22 23 24 26 27 28 29 30 31
10 10 10 10 10 10 11 10 10 10 10 10 9 9 8 7 6 5 6 7 9 11 12 14 15 16 17 18 18 19 19 20 21 22 23 25 26 27 28 29 30 31
10 10 10 10 10 10 10 10 9 9 9 8 7 6 5 4 4 5 6 7 9 10 12 14 15 16 17 17 17 18 18 19 21 22 23 25 26 27 28 30 31 32
11 11 10 10 10 10 9 9 8 8 7 6 5 4 3 3 4 5 6 8 9 11 13 14 15 16 16 16 17 18 19 20 21 22 24 25 26 27 28 29 31 32
11 11 10 10 10 9 9 8 7 6 5 4 4 3 3 3 4 6 7 9 10 12 13 14 15 15 16 16 17 18 19 21 22 23 24 25 25 27 28 29 30 32
11 11 11 10 9 9 8 7 6 5 4 4 3 3 3 4 5 7 8 10 12 13 14 15 15 16 16 17 18 19 20 21 22 24 25 26 26 27 28 30 31 32
12 11 10 10 9 8 7 6 5 4 4 3 3 3 4 5 7 8 10 11 13 14 15 15 16 16 17 18 18 19 21 22 23 25 25 26 27 28 29 30 31 32
12 11 10 10 9 8 6 5 4 4 4 3 3 4 5 6 8 9 10 12 13 14 15 16 16 17 17 18 19 20 21 23 24 25 26 27 28 29 29 30 31 32
12 11 10 9 8 7 6 5 5 5 4 3 3 4 6 7 9 10 11 12 13 14 15 15 16 17 18 18 20 20 22 23 24 25 26 27 28 29 30 31 32 33
12 11 10 9 8 7 6 6 6 5 3 3 4 5 6 8 9 10 11 12 13 14 14 15 16 17 18 18 20 21 22 23 24 25 26 27 28 29 30 31 33 34
12 12 11 9 8 8 7 7 5 4 3 3 4 6 7 8 9 10 11 12 12 13 14 15 15 16 17 18 20 21 22 22 23 24 25 26 27 29 30 31 32 33
13 12 11 10 9 9 8 7 5 3 3 4 5 6 7 8 9 9 10 11 12 12 13 14 15 16 17 18 19 20 21 22 23 23 24 25 27 28 30 31 31 31
14 13 12 11 10 9 8 6 4 3 3 4 5 6 6 7 8 9 10 11 11 12 13 13 14 16 17 18 19 19 20 21 22 23 23 24 26 27 28 30 31 32
15 13 12 12 11 9 7 5 3 3 3 3 4 5 6 7 8 9 10 10 11 11 12 14 15 16 17 18 18 19 20 20 21 22 23 24 25 27 28 29 31 32
15 14 13 12 11 8 6 5 3 3 3 3 4 4 5 6 7 8 9 10 11 12 13 15 16 17 17 18 18 19 19 20 21 22 23 24 25 27 28 29 31 33